Regional Weather Roundup
Issued by NWS

Home | Current Version | Previous Version | Graphics & Text | Print | Product List | Glossary On
Versions: 1 2 3 4 5 6 7 8 9 10 11 12 13 14 15 16 17 18 19 20 21 22 23 24 25 26 27 28 29 30 31 32 33 34 35 36 37 38 39 40 41 42 43 44 45 46 47 48 49 50
738
ASUS43 KTOP 251108
RWRKS

WEATHER ROUNDUP FOR KANSAS
NATIONAL WEATHER SERVICE GOODLAND KS
600 AM CDT SAT MAR 25 2017

NOTE:  "FAIR" INDICATES FEW OR NO CLOUDS BELOW 12,000 FEET WITH NO
SIGNIFICANT WEATHER AND/OR OBSTRUCTIONS TO VISIBILITY.

KSZ001>006-013>018-027>032-041>047-251200-
NORTHWEST KANSAS

CITY           SKY/WX    TMP DP  RH WIND       PRES   REMARKS
GOODLAND       CLEAR     33  30  88 NW12      30.04F WCI  24
HAYS             N/A     43  38  82 N21       29.99R
HILL CITY      CLOUDY    42  39  89 N9        30.00S
RUSSELL        CLOUDY    41  38  89 N18       29.97R
$$

KSZ061>065-074>080-084>089-251200-
SOUTHWEST KANSAS

CITY           SKY/WX    TMP DP  RH WIND       PRES   REMARKS
DODGE CITY     MOCLDY    42  39  89 N13       29.97F
ELKHART          N/A     35  25  67 W10         N/A  WCI  27
GARDEN CITY    PTCLDY    39  35  86 NW14      30.00F WCI  31
GREAT BEND     CLOUDY    42  39  89 N21       29.96S
LIBERAL        CLOUDY    39  32  75 NW12      30.03S WCI  32
PRATT          CLOUDY    39  36  87 NW24G30   29.93S WCI  28
$$

KSZ066>073-081>083-090>101-251200-
SOUTHEAST KANSAS

CITY           SKY/WX    TMP DP  RH WIND       PRES   REMARKS
CHANUTE        CLOUDY    48  46  93 NW20G25   29.79R
COFFEYVILLE    LGT RAIN  50  48  93 NW18      29.83R FOG
HUTCHINSON     CLOUDY    42  40  92 N18G30    29.92R
MEDICINE LODGE   N/A     44  38  79 NW18G30   29.93R
NEWTON         CLOUDY    42  40  92 NW24G30   29.87R
PARSONS        LGT RAIN  49  47  93 NW12      29.84R FOG
WICHITA INTL   LGT RAIN  43  42  97 NW26G33   29.88R
WICHITA JABRA  LGT RAIN  42  41  96 NW17G24   29.87S
WICHITA MCCONL LGT RAIN  43  40  90 NW20G25   29.87R
WINFIELD       CLOUDY    44  42  93 NW15      29.88S
$$

KSZ007>012-019>026-033>040-048>060-102>105-251200-
NORTHEAST KANSAS

CITY           SKY/WX    TMP DP  RH WIND       PRES   REMARKS
CONCORDIA      LGT RAIN  40  39  97 N17G24    29.94R WCI  31
EMPORIA        LGT RAIN  43  43 100 NW20G28   29.82R
LAWRENCE       CLOUDY    47  47 100 NW12      29.80R FOG
MANHATTAN      LGT RAIN  43  41  93 N7        29.89R
MARYSVILLE     HVY RAIN  41  41 100 N15G23    29.89S
OLATHE IND     FOG       47  47 100 NW10      29.78R VSB 1
OLATHE EXE     CLOUDY    49  49 100 NW9       29.76R FOG
SALINA         RAIN      44  41  89 NW18      29.93R
TOPEKA BILLARD CLOUDY    46  45  96 NW12      29.82R
TOPEKA FORBES  CLOUDY    46  44  93 NW16      29.81R
$$




USA.gov is the U.S. government's official web portal to all federal, state and local government web resources and services.